Back to catalog

SL-8 R/B

AliveLEO
NORAD 13168·ROCKET BODY·🇷🇺 Russia

Launched May 6, 1982 from Plesetsk Cosmodrome

Loading…

Next Passes (next 24 hours)

TLE

FreshSource: Space-Track

Epoch: Sep 14, 2026, 15:28 UTC

1 13168U 82040J   26257.64488570 -.00000082  00000-0 -61775-3 0  9998
2 13168  74.0471 228.7384 0135244 119.5390 241.9208 12.22880467980356

Track SL-8 R/B in real time with AllMySat

Download on the App Store